Location: ?
(35.4064°N, 139.3593°E)
Time: 13:14:31
(UTC+00:00)

ARIANE 6 FM1 Upper Stage - Pass Details

Date: 09 December 2025
Orbit: 522 x 610 km, 62.0° (Epoch: 13 January)

Event Time Altitude Azimuth Distance (km) Brightness Sun altitude
Rises 20:52:49 0° 168° (SSE) 2,710 6.6 -9.7°
Reaches altitude 10° 20:56:06 10° 140° (SE) 1,802 6.3 -9.0°
Maximum altitude 20:57:58 13° 113° (ESE) 1,611 6.6 -8.7°
Drops below altitude 10° 20:59:50 10° 85° (E) 1,787 6.4 -8.3°
Sets 21:03:03 0° 57° (ENE) 2,668 6.6 -7.7°
